OBJECT AC, 67274

Orbit data source: Space-Track

You're viewing an Uncataloged Satellite

Recently launched and/or uncataloged satellites may have evolving metadata. Metadata may include but not limited to: Owner, Maufacturer, Bus, Motor, and Mission.

OBJECT AC, 67274 is a satellite in SSO that was launched on Sun, 28 Dec 2025 UTC via a SOYUZ-2-1B launch vehicle from the Vostochny Cosmodrome (VOSTO). Unknown objects in Earth's orbit typically refer to objects detected orbiting the Earth but have not yet been identified or cataloged. These objects could be anything from previously untracked satellites, spent rocket stages, debris from satellite collisions, or even natural meteoroids temporarily captured by Earth's gravity.

Loading next visibility...
Identifier
67274, 2025-313AC
Orbit
SSO
Country
Flag of TBDTBD
Related business
None
Manufacturer
Unknown
Mission
Operational Commercial Communications
Bus & Motor
Unknown
Mass
Unknown
Launch date (UTC)
2025-12-28 (6 months ago)
Launch vehicle
SOYUZ-2-1B
Launch site
Vostochny Cosmodrome (VOSTO)
Object type
Unknown
Shape & HBR
Box, 0.1 m
Radar Cross Section
0.035 m², Medium (>0.1 m² and < 1m²)

Expand to show TLE details & history
Last TLE update: 19 hours ago

TLE from 19 hours ago
0 OBJECT AC
1 67274U 25313AC  26171.18816369  .00004990  00000-0  21748-3 0  9996
2 67274  97.3929 245.7108 0014190   0.0408   0.0827 15.22555281 26406
Epoch: 2026-06-20T04:30Z
TLE epoch observation values (Epoch: 2026-06-20T04:30:57.342Z)
Latitude
-0.00006°
Longitude
-90.43449°
Altitude
491.471 km
Speed
7.625 km/s
True Right ascension
16h 22m 50s
True Declination
0° 00' 00"
Sunlit
Object was in full shadow at epoch
Visualization orbit readout
Latitude
Unknown
Longitude
Unknown
Altitude
Unknown
Speed
Unknown
Apparent Right ascension
Unknown
Apparent Declination
Unknown
Sunlit
N/A
Visualization observer readout
Local Sidereal Time
10:19:44
Azimuth
Unknown
Elevation
Unknown
Doppler factor
Unknown
Orbital elements
Apogee altitude
504.851 km
Perigee altitude
485.345 km
Semi-major axis
6,873.235 km
Eccentricity
0.00142
Inclination
97.3929°
RAAN
245.7108°
Arg. of periapsis
0.0408°
True anomaly
0.08294°
Mean anomaly
0.0827°
Eccentric anomaly
0.08282°
Mean motion
3.80892 °/min
Orbital period
94.52 mins
BSTAR
0.00021748
Loading maneuver chart data...
Computing Atmospheric mass density...
Loading historical data...
Loading historical data...
Loading historical data...
Loading historical data...
Loading historical data...
Loading historical data...
Loading historical data...

Documentation

Showing up to 5 results
|